Location: Chevoux
(46.3801°N, 4.9476°E)
Time: 08:15:33
(UTC+00:00)

X-37B - Pass Details

Date: 24 April 2021
Orbit: 386 x 389 km, 45.0° (Epoch: 08 May)

Event Time Altitude Azimuth Distance (km) Brightness Sun altitude
Exits shadow 03:50:11 - 271° (W) 1,506 3.0 -8.3°
Reaches altitude 10° 03:50:25 10° 270° (W) 1,416 2.9 -8.2°
Maximum altitude 03:53:29 46° 196° (SSW) 528 1.0 -7.8°
Drops below altitude 10° 03:56:33 10° 121° (ESE) 1,410 3.9 -7.3°
Sets 03:58:39 0° 115° (ESE) 2,262 5.1 -7.0°
